Location: Bats
(43.6587°N, 0.4584°W)
Time: 11:11:51
(UTC+00:00)

Cosmos 1452 Rocket - Pass Details

Date: 12 January 2026
Orbit: 762 x 771 km, 74.1° (Epoch: 10 February)

Event Time Altitude Azimuth Distance (km) Brightness Sun altitude
Rises 19:08:53 0° 209° (SSW) 3,218 7.2 -25.1°
Reaches altitude 10° 19:11:16 10° 213° (SSW) 2,298 6.4 -25.5°
Maximum altitude 19:16:25 60° 293° (WNW) 881 3.9 -26.4°
Enters shadow 19:18:24 36° 357° (N) 1,203 4.4 -26.8°
